[[{"header":{"parameterUnit":"m.s-1","parameterCategory":1,"la1":30.2991,"la2":30.254,"lo1":-89.0895,"lo2":-89.0444,"dy":0.0017,"dx":0.0017,"nx":28,"ny":28,"refTime":"2024-06-24T21:00:00:Z","depth":0,"parameterNumber":2,"parameterNumberName":"U-component_of_WINDS"},"data":[0,0,0,0,0,0,0,0,0,0,0,0,0,0,0,0,0,0,0,0,0,0,0,0,0,0,0,0,0,0,0,0,0,0,0,0,0,0,0,0,0,0,0,0,0,0,0,0,0,0,0,0,0,0,0,0,0,0,2.3053,2.3054,0,2.3147,2.3148,2.3149,2.3171,2.317,2.3169,2.3169,2.3266,2.327,2.3273,0,0,0,0,0,0,0,0,0,0,0,0,0,2.2895,2.2897,2.3053,2.3054,2.3055,2.3147,2.3148,2.3149,2.3171,2.317,2.3169,2.3168,2.3265,2.3269,2.3273,0,0,0,0,0,0,0,0,0,0,0,0,0,2.2973,2.2898,2.3052,2.3077,2.308,2.3146,2.3148,2.3149,2.3171,2.317,2.3169,2.3168,2.3264,2.3269,2.3274,2.3323,0,0,2.3288,2.329,0,0,0,0,0,0,0,0,2.2969,2.2979,2.3072,2.3075,2.3079,2.3146,2.3128,2.3208,2.3171,2.3136,2.3169,2.3167,2.3227,2.3235,2.3255,2.3327,2.3332,2.3289,2.3292,2.3294,2.3295,0,0,0,0,0,0,0,2.2963,2.2975,2.309,2.3073,2.3078,2.3084,2.3094,2.3143,2.3186,2.3139,2.3141,2.3152,2.3229,2.325,2.3257,2.3333,2.3289,2.3293,2.3296,2.3298,2.3453,2.3454,0,0,0,0,0,0,2.2953,2.297,2.3087,2.3093,2.302,2.3087,2.3099,2.3125,2.3186,2.3194,2.3153,2.3152,2.3242,2.3252,2.3261,2.3324,2.3294,2.3298,2.3301,2.3452,2.3453,2.3455,0,0,0,0,0,0,2.295,2.2963,2.3083,2.3032,2.3048,2.3091,2.3121,2.3128,2.3149,2.3196,2.3204,2.3166,2.3242,2.3254,2.3308,2.3327,2.33,2.3305,2.345,2.3452,2.3454,2.3449,0,0,0,0,0,0,2.2945,2.2962,2.2981,2.3032,2.305,2.3128,2.3122,2.313,2.3157,2.3158,2.3211,2.3218,2.3242,2.33,2.3312,2.3334,2.3308,2.3449,2.3451,2.3453,2.3448,2.3451,2.3453,0,0,0,0,0,2.2939,2.2975,2.2981,2.2995,2.3074,2.3129,2.3139,2.3165,2.3158,2.3178,2.3208,2.3217,2.3323,2.3306,2.3319,2.3342,2.3448,2.345,2.3453,2.3447,2.345,2.3453,0,0,0,0,0,0,2.2925,2.2983,2.299,2.3043,2.3081,2.3132,2.3157,2.3168,2.3208,2.3207,2.3238,2.325,2.3302,2.3328,2.3307,2.3394,2.3385,2.3391,2.3376,2.3379,2.3382,2.3375,2.3312,0,0,0,0,0,2.2928,2.2966,2.3015,2.3058,2.3076,2.3114,2.3138,2.3155,2.3195,2.3211,2.3246,2.3285,2.3327,2.3355,2.3396,2.3452,2.3464,2.3474,2.3477,2.3479,2.3484,2.3516,2.3522,2.3464,2.3464,2.3464,0,0,2.2935,2.2971,2.2993,2.3056,2.3087,2.3127,2.3127,2.3169,2.3199,2.3218,2.3271,2.3297,2.3344,2.3398,2.3424,2.3421,2.3502,2.3482,2.3484,2.3487,2.352,2.3525,2.353,2.3466,2.3465,2.3465,0,0,2.2967,2.2998,2.3038,2.3069,2.3116,2.3141,2.3151,2.3201,2.3219,2.3272,2.3288,2.3325,2.3397,2.343,2.3456,2.3502,2.3512,2.3515,2.3529,2.3561,2.3565,2.3569,2.3587,2.3593,2.352,2.352,2.352,0,2.297,2.303,2.3057,2.3099,2.3127,2.3145,2.3187,2.3216,2.3274,2.3293,2.3289,2.3381,2.3413,2.3477,2.3488,2.3508,2.3521,2.3509,2.3562,2.3567,2.3571,2.3589,2.3595,2.352,2.352,2.352,2.352,0,2.3032,2.3074,2.31,2.3156,2.3187,2.3228,2.3262,2.329,2.3305,2.333,2.3385,2.3425,2.3475,2.3492,2.3506,2.3558,2.3555,2.3556,2.3548,2.3576,2.3593,2.36,2.352,2.352,2.352,2.352,0,0,2.3057,2.3128,2.3138,2.3164,2.3218,2.3251,2.3294,2.3343,2.3367,2.3407,2.3445,2.3506,2.3508,2.3538,2.3556,2.3584,2.362,2.3582,2.3583,2.3588,2.3681,2.368,2.3687,2.3627,2.3628,2.3629,2.3677,0,2.3098,2.3174,2.32,2.3264,2.3304,2.3323,2.336,2.3398,2.3423,2.3462,2.349,2.3533,2.3532,2.355,2.3578,2.3609,2.3639,2.3606,2.3663,2.3664,2.3651,2.3696,2.3695,2.3738,2.3684,2.3685,2.3686,0,2.3155,2.3196,2.3263,2.3314,2.3331,2.3364,2.3412,2.3448,2.3492,2.3509,2.3542,2.3559,2.3606,2.3595,2.366,2.3638,2.3662,2.3681,2.3684,2.369,2.3677,2.3705,2.3753,2.376,2.3696,2.3695,2.3695,0,2.3168,2.324,2.329,2.3312,2.3372,2.3395,2.3421,2.3463,2.3492,2.3534,2.3553,2.36,2.3626,2.3663,2.3692,2.3681,2.3756,2.3747,2.3772,2.3771,2.3787,2.3786,2.3841,2.3802,2.3802,2.3802,2.3801,0,2.321,2.3251,2.3297,2.3328,2.3375,2.3405,2.3451,2.3478,2.3516,2.3554,2.3573,2.3608,2.3645,2.3685,2.3708,2.376,2.3771,2.3787,2.3792,2.3785,2.3783,2.3802,2.38,2.3803,2.3803,2.3803,2.3802,0,2.3233,2.3265,2.3322,2.3374,2.3388,2.342,2.3465,2.3497,2.3523,2.357,2.3583,2.3625,2.3673,2.3706,2.3768,2.3784,2.384,2.3845,2.3825,2.3828,2.3852,2.385,2.3921,2.3933,2.3885,2.3886,2.3886,0,2.3259,2.3291,2.3346,2.3373,2.3399,2.3441,2.347,2.3501,2.3531,2.3584,2.3609,2.3659,2.37,2.3776,2.3813,2.3861,2.3868,2.389,2.3875,2.3867,2.3869,2.3867,2.3871,2.3892,2.3892,2.3893,2.3893,0,2.3301,2.3315,2.3356,2.3404,2.3438,2.3477,2.3516,2.3536,2.3575,2.3607,2.3657,2.3689,2.3752,2.3802,2.3853,2.3881,2.3894,2.3897,2.3906,2.3899,2.3886,2.3894,2.3832,2.3895,2.3895,2.3895,2.3895,2.3895,2.3326,2.3356,2.34,2.3446,2.3479,2.3515,2.3547,2.3578,2.362,2.3674,2.369,2.3741,2.3786,2.3856,2.3885,2.3927,2.3925,2.3937,2.394,2.3943,2.3943,2.3879,2.3936,2.3936,2.3936,2.3936,2.3936,0,2.337,2.34,2.3441,2.3495,2.3532,2.354,2.3584,2.3614,2.3659,2.3699,2.374,2.3797,2.3846,2.3886,2.3936,2.3962,2.3969,2.3974,2.3973,2.3979,2.3941,2.3929,2.3967,2.3967,2.3967,2.3967,2.3967,2.3967,2.3397,2.3449,2.3469,2.3537,2.3567,2.3617,2.3642,2.3676,2.3708,2.3771,2.3811,2.3837,2.3878,2.3932,2.3977,2.3988,2.4006,2.4009,2.4021,2.3985,2.3982,2.3978,2.3967,2.4013,2.4013,2.4056,2.4057,2.4057]},{"header":{"parameterUnit":"m.s-1","parameterCategory":1,"la1":30.2991,"la2":30.254,"lo1":-89.0895,"lo2":-89.0444,"dy":0.0017,"dx":0.0017,"nx":28,"ny":28,"refTime":"2024-06-24T21:00:00:Z","depth":0,"parameterNumber":3,"parameterNumberName":"V-component_of_WINDS"},"data":[0,0,0,0,0,0,0,0,0,0,0,0,0,0,0,0,0,0,0,0,0,0,0,0,0,0,0,0,0,0,0,0,0,0,0,0,0,0,0,0,0,0,0,0,0,0,0,0,0,0,0,0,0,0,0,0,0,0,0.0653,0.0653,0,0.0709,0.071,0.0711,0.0704,0.0703,0.0702,0.0701,0.0759,0.0762,0.0764,0,0,0,0,0,0,0,0,0,0,0,0,0,0.0538,0.054,0.0653,0.0653,0.0654,0.0709,0.071,0.0711,0.0704,0.0703,0.0701,0.07,0.0759,0.0761,0.0764,0,0,0,0,0,0,0,0,0,0,0,0,0,0.059,0.054,0.0653,0.0657,0.0658,0.0709,0.071,0.0711,0.0704,0.0703,0.0701,0.07,0.0758,0.0761,0.0765,0.0815,0,0,0.0776,0.0777,0,0,0,0,0,0,0,0,0.0587,0.0594,0.0656,0.0657,0.0658,0.0698,0.0691,0.0746,0.0704,0.0687,0.0701,0.0699,0.074,0.0745,0.0759,0.0818,0.082,0.0776,0.0778,0.078,0.0781,0,0,0,0,0,0,0,0.0584,0.0592,0.0675,0.0657,0.0658,0.0656,0.0662,0.0701,0.072,0.0688,0.0688,0.0694,0.074,0.0755,0.076,0.0821,0.0776,0.0779,0.0782,0.0783,0.0921,0.0922,0,0,0,0,0,0,0.0579,0.0589,0.0673,0.0677,0.0619,0.0659,0.0666,0.0687,0.072,0.0724,0.0695,0.0694,0.075,0.0756,0.0762,0.0821,0.078,0.0783,0.0785,0.0919,0.0921,0.0923,0,0,0,0,0,0,0.0576,0.0586,0.0671,0.0633,0.0643,0.0663,0.0686,0.0688,0.0703,0.0726,0.0729,0.0707,0.0749,0.0757,0.0801,0.0823,0.0785,0.0788,0.0918,0.092,0.0922,0.094,0,0,0,0,0,0,0.0573,0.0586,0.0605,0.0633,0.0645,0.071,0.0687,0.0691,0.0709,0.0708,0.0737,0.0741,0.0748,0.0796,0.0805,0.0827,0.0791,0.0916,0.0919,0.0921,0.0938,0.0943,0.0947,0,0,0,0,0,0.0569,0.0609,0.0606,0.0617,0.0671,0.0711,0.0718,0.0725,0.0711,0.0731,0.0745,0.074,0.0819,0.08,0.081,0.0834,0.0914,0.0918,0.0921,0.0936,0.0942,0.0947,0,0,0,0,0,0,0.0584,0.0613,0.061,0.0661,0.0683,0.071,0.0735,0.0732,0.076,0.0757,0.0765,0.0772,0.0816,0.083,0.0808,0.0883,0.0865,0.087,0.0873,0.0879,0.0883,0.0879,0.0794,0,0,0,0,0,0.0593,0.0624,0.0647,0.0689,0.0701,0.0716,0.0734,0.0737,0.0761,0.0771,0.0788,0.0811,0.0841,0.0861,0.089,0.094,0.0945,0.0961,0.0966,0.097,0.0974,0.0999,0.1006,0.0934,0.0934,0.0934,0,0,0.0612,0.0632,0.0651,0.0693,0.0711,0.0741,0.0724,0.0758,0.078,0.0776,0.0818,0.0831,0.0858,0.0904,0.0926,0.0917,0.0995,0.0974,0.0977,0.0979,0.1003,0.101,0.1016,0.0936,0.0935,0.0935,0,0,0.0663,0.0681,0.0717,0.0735,0.0762,0.0771,0.078,0.0806,0.0815,0.0857,0.0853,0.088,0.0932,0.095,0.0966,0.1021,0.1017,0.103,0.1054,0.1079,0.1085,0.109,0.1107,0.1114,0.1034,0.1034,0.1035,0,0.0684,0.073,0.0736,0.077,0.0787,0.0784,0.0819,0.0837,0.0872,0.0884,0.0873,0.0936,0.0954,0.1004,0.1017,0.1031,0.1039,0.1027,0.1083,0.1088,0.1093,0.111,0.1117,0.1036,0.1036,0.1036,0.1035,0,0.0753,0.0785,0.0811,0.0843,0.0864,0.0898,0.0909,0.0929,0.093,0.094,0.0982,0.1003,0.1035,0.1047,0.1049,0.1096,0.109,0.1081,0.1063,0.1101,0.1117,0.1124,0.1038,0.1037,0.1037,0.1036,0,0,0.0816,0.085,0.0859,0.0873,0.0901,0.0926,0.0959,0.0989,0.1006,0.103,0.1057,0.1099,0.1091,0.1109,0.1113,0.1134,0.1174,0.1123,0.1124,0.113,0.1225,0.123,0.1238,0.1171,0.1172,0.1174,0.1222,0,0.0868,0.0927,0.0932,0.0985,0.1013,0.1009,0.1038,0.1058,0.1068,0.1093,0.1104,0.1133,0.1121,0.1131,0.1152,0.1164,0.1192,0.1161,0.1196,0.1197,0.1188,0.1246,0.1253,0.1297,0.1228,0.1229,0.123,0,0.0937,0.0961,0.1016,0.1038,0.105,0.1076,0.1103,0.1128,0.115,0.1155,0.1174,0.1174,0.1207,0.1187,0.1232,0.1211,0.1225,0.1233,0.1235,0.1238,0.1215,0.125,0.1312,0.1318,0.124,0.124,0.1239,0,0.0975,0.1022,0.106,0.1072,0.1099,0.1117,0.1129,0.115,0.1167,0.119,0.1201,0.1229,0.1243,0.1264,0.1271,0.1256,0.1315,0.1296,0.1319,0.1319,0.1332,0.1331,0.1396,0.1343,0.1343,0.1342,0.1342,0,0.1032,0.1066,0.1077,0.1101,0.1137,0.1143,0.1179,0.119,0.1208,0.1233,0.1231,0.1255,0.1263,0.1287,0.1293,0.1328,0.1335,0.134,0.1341,0.134,0.1339,0.1349,0.1345,0.1344,0.1344,0.1344,0.1343,0,0.1081,0.109,0.1132,0.1153,0.1159,0.1185,0.1203,0.1225,0.1234,0.1265,0.1273,0.1286,0.1315,0.1324,0.1358,0.1362,0.1403,0.1401,0.1395,0.1395,0.1417,0.1414,0.149,0.15,0.1441,0.1442,0.1442,0,0.1116,0.1142,0.1165,0.1182,0.1194,0.1221,0.1237,0.1243,0.1261,0.1286,0.1305,0.1333,0.1355,0.14,0.1413,0.1439,0.1437,0.1462,0.1441,0.1438,0.1436,0.1434,0.1436,0.1466,0.1467,0.1467,0.1468,0,0.1178,0.118,0.1205,0.123,0.125,0.127,0.129,0.1303,0.1312,0.1331,0.136,0.1377,0.1411,0.1439,0.1464,0.1476,0.1473,0.1474,0.148,0.1479,0.1474,0.1475,0.1404,0.1472,0.1472,0.1471,0.1471,0.1471,0.122,0.1241,0.1261,0.1287,0.1302,0.132,0.1341,0.1351,0.1375,0.1403,0.1405,0.1435,0.1454,0.1488,0.1501,0.1524,0.1517,0.1527,0.1529,0.1531,0.1532,0.147,0.1529,0.1529,0.1529,0.1529,0.1529,0,0.128,0.1291,0.1316,0.1342,0.1363,0.1357,0.1378,0.1395,0.1422,0.144,0.1461,0.1493,0.1519,0.1532,0.1558,0.1573,0.1572,0.158,0.1578,0.158,0.1538,0.1529,0.158,0.158,0.158,0.158,0.158,0.158,0.1313,0.1348,0.1353,0.1395,0.1406,0.1436,0.1448,0.1463,0.1477,0.1513,0.1534,0.1542,0.1558,0.1584,0.1607,0.161,0.1619,0.1627,0.1629,0.1589,0.1584,0.1579,0.157,0.1629,0.1629,0.1669,0.1669,0.167]}]]